Location: Big Bend
(41.8409°N, 79.0042°W)
Time: 10:02:15
(UTC+00:00)

Envisat - Pass Details

Date: 13 October 2024
Orbit: 761 x 763 km, 98.3° (Epoch: 11 November)

Event Time Altitude Azimuth Distance (km) Brightness Sun altitude
Rises 09:48:19 0° 357° (N) 3,235 6.3 -19.1°
Reaches altitude 10° 09:51:21 10° 338° (NNW) 2,304 5.3 -18.5°
Enters shadow 09:53:08 15° 318° (NW) 1,947 4.8 -18.2°
